BREEZE-KM R/B, 39486

Orbit data source: Space-Track

BREEZE-KM R/B, 39486 is space debris in LEO originally from a launch on Wed, 25 Dec 2013 UTC launched from the Plesetsk Missile And Space Complex (PKMTR). Debris objects in space refer to the collection of defunct objects orbiting the Earth. Examples of debris include non-operational satellites, rocket bodies, and fragments generated from explosions, collisions, or faulty payload assembly.

Loading next visibility...
Identifier
39486, 2013-076D
Orbit
LEO
Country
Flag of CISCIS
Related business
Manufacturer
Khrunichev
Mission
Spacecraft
Bus & Motor
BRIZ, S5.92
Mass
2,370 kg wet, 2,370 kg dry
Launch date (UTC)
2013-12-25 (12 years ago)
Launch vehicle
Unknown
Launch site
Plesetsk Missile And Space Complex (PKMTR)
Object type
Payload
Rocket body
Debris
Shape & HBR
Hex Cyl + 1 Rod, 2.0 m
Radar Cross Section
10.190 m², Large (>1 m²)

Expand to show TLE details & history
Last TLE update: 2 days ago

TLE from 2 days ago
0 BREEZE-KM R/B
1 39486U 13076D   26171.40329990  .00000015  00000-0  15240-4 0  9992
2 39486  82.4836 305.0255 0232714 354.7537   5.1130 12.82991103584661
Epoch: 2026-06-20T09:40Z
TLE epoch observation values (Epoch: 2026-06-20T09:40:45.111Z)
Latitude
-0.00003°
Longitude
-108.78089°
Altitude
1,153.576 km
Speed
7.36 km/s
True Right ascension
20h 20m 06s
True Declination
0° 00' 00"
Sunlit
Object was in full shadow at epoch
Visualization orbit readout
Latitude
Unknown
Longitude
Unknown
Altitude
Unknown
Speed
Unknown
Apparent Right ascension
Unknown
Apparent Declination
Unknown
Sunlit
N/A
Visualization observer readout
Local Sidereal Time
00:50:20
Azimuth
Unknown
Elevation
Unknown
Doppler factor
Unknown
Orbital elements
Apogee altitude
1,506.064 km
Perigee altitude
1,147.456 km
Semi-major axis
7,704.897 km
Eccentricity
0.02327
Inclination
82.4836°
RAAN
305.0255°
Arg. of periapsis
354.7537°
True anomaly
5.35774°
Mean anomaly
5.113°
Eccentric anomaly
5.23465°
Mean motion
3.20917 °/min
Orbital period
112.18 mins
BSTAR
0.00001524
Loading maneuver chart data...
Computing Atmospheric mass density...
Loading historical data...
Loading historical data...
Loading historical data...
Loading historical data...
Loading historical data...
Loading historical data...
Loading historical data...

Documentation

Showing up to 5 results
|